| time (UTC) | temp F | wind direction | speed MPH | gust MPH | rain 1hr in | rain 24hr in | rain mn in | humidity % | barometer mb |
| 20260505213942 | 54 | 347 | 0.0 | 2.0 | 0.00 | 0.00 | 0.00 | 75 | 1010.3 |
| 20260505213439 | 54 | 20 | 1.0 | 4.0 | 0.00 | 0.00 | 0.00 | 75 | 1010.5 |
| 20260505212935 | 55 | 17 | 1.0 | 3.0 | 0.00 | 0.00 | 0.00 | 74 | 1010.6 |
| 20260505212432 | 55 | 12 | 0.0 | 3.0 | 0.00 | 0.00 | 0.00 | 74 | 1010.8 |
| 20260505211928 | 55 | 318 | 1.0 | 3.0 | 0.00 | 0.00 | 0.00 | 74 | 1010.9 |
| 20260505211426 | 54 | 22 | 1.0 | 3.0 | 0.00 | 0.00 | 0.00 | 74 | 1010.1 |
| 20260505210922 | 55 | 346 | 2.0 | 3.0 | 0.00 | 0.00 | 0.00 | 73 | 1010.4 |
| 20260505210420 | 54 | 275 | 1.0 | 3.0 | 0.00 | 0.00 | 0.00 | 75 | 1010.0 |
| 20260505205916 | 54 | 280 | 2.0 | 3.0 | 0.00 | 0.00 | 0.00 | 75 | 1010.1 |
| 20260505205415 | 54 | 15 | 0.0 | 3.0 | 0.00 | 0.00 | 0.00 | 75 | 1010.5 |
| 20260505204911 | 54 | 10 | 0.0 | 2.0 | 0.00 | 0.00 | 0.00 | 75 | 1011.0 |
| 20260505204409 | 55 | 21 | 0.0 | 2.0 | 0.00 | 0.00 | 0.00 | 75 | 1011.4 |
| 20260505203906 | 55 | 45 | 1.0 | 2.0 | 0.00 | 0.00 | 0.00 | 76 | 1010.9 |
| 20260505203403 | 55 | 347 | 0.0 | 4.0 | 0.00 | 0.00 | 0.00 | 75 | 1010.4 |
| 20260505202859 | 55 | 28 | 1.0 | 2.0 | 0.00 | 0.00 | 0.00 | 75 | 1010.5 |
| 20260505202355 | 55 | 282 | 2.0 | 2.0 | 0.00 | 0.00 | 0.00 | 75 | 1010.2 |
| 20260505201852 | 55 | 38 | 1.0 | 2.0 | 0.00 | 0.00 | 0.00 | 75 | 1010.1 |
| 20260505201349 | 55 | 24 | 1.0 | 3.0 | 0.00 | 0.00 | 0.00 | 76 | 1009.9 |
| 20260505200847 | 55 | 28 | 2.0 | 6.0 | 0.00 | 0.00 | 0.00 | 76 | 1010.1 |
| 20260505200344 | 55 | 342 | 1.0 | 2.0 | 0.00 | 0.00 | 0.00 | 76 | 1010.2 |
| 20260505195840 | 55 | 24 | 0.0 | 2.0 | 0.00 | 0.00 | 0.00 | 77 | 1010.1 |
| 20260505195337 | 55 | 60 | 2.0 | 3.0 | 0.00 | 0.00 | 0.00 | 78 | 1010.1 |
| 20260505194834 | 55 | 11 | 2.0 | 3.0 | 0.00 | 0.00 | 0.00 | 78 | 1010.3 |
| 20260505194331 | 55 | 304 | 1.0 | 2.0 | 0.00 | 0.00 | 0.00 | 79 | 1010.0 |
| 20260505193826 | 55 | 287 | 0.0 | 4.0 | 0.00 | 0.00 | 0.00 | 79 | 1010.1 |
| 20260505193324 | 55 | 244 | 1.0 | 3.0 | 0.00 | 0.00 | 0.00 | 79 | 1009.9 |
| 20260505192822 | 55 | 236 | 2.0 | 3.0 | 0.00 | 0.00 | 0.00 | 80 | 1010.3 |
| 20260505192320 | 55 | 20 | 3.0 | 4.0 | 0.00 | 0.00 | 0.00 | 79 | 1009.9 |
| 20260505191817 | 55 | 336 | 2.0 | 3.0 | 0.00 | 0.00 | 0.00 | 80 | 1009.7 |
| 20260505191316 | 55 | 348 | 1.0 | 2.0 | 0.00 | 0.00 | 0.00 | 80 | 1010.0 |
| 20260505190812 | 55 | 21 | 1.0 | 2.0 | 0.00 | 0.00 | 0.00 | 81 | 1010.1 |
| 20260505190307 | 55 | 92 | 1.0 | 2.0 | 0.00 | 0.00 | 0.00 | 81 | 1010.1 |
| 20260505185803 | 55 | 0 | 1.0 | 4.0 | 0.00 | 0.00 | 0.00 | 81 | 1009.7 |
| 20260505185300 | 55 | 221 | 1.0 | 2.0 | 0.00 | 0.00 | 0.00 | 82 | 1009.9 |
| 20260505184756 | 55 | 99 | 1.0 | 3.0 | 0.00 | 0.00 | 0.00 | 81 | 1009.6 |
| 20260505184253 | 56 | 358 | 1.0 | 3.0 | 0.00 | 0.00 | 0.00 | 81 | 1009.9 |
| 20260505183750 | 56 | 323 | 0.0 | 3.0 | 0.00 | 0.00 | 0.00 | 81 | 1009.4 |
| 20260505183248 | 56 | 23 | 2.0 | 3.0 | 0.00 | 0.00 | 0.00 | 80 | 1009.9 |
| 20260505182744 | 56 | 79 | 0.0 | 1.0 | 0.00 | 0.00 | 0.00 | 80 | 1009.7 |
| 20260505182241 | 56 | 335 | 1.0 | 2.0 | 0.00 | 0.00 | 0.00 | 80 | 1009.5 |
| 20260505181737 | 57 | 313 | 1.0 | 3.0 | 0.00 | 0.00 | 0.00 | 79 | 1009.4 |
| 20260505181235 | 57 | 246 | 2.0 | 3.0 | 0.00 | 0.00 | 0.00 | 79 | 1009.3 |
| 20260505180731 | 57 | 29 | 0.0 | 2.0 | 0.00 | 0.00 | 0.00 | 80 | 1009.3 |
| 20260505180228 | 57 | 327 | 1.0 | 2.0 | 0.00 | 0.00 | 0.00 | 79 | 1009.3 |
| 20260505175724 | 58 | 290 | 1.0 | 2.0 | 0.00 | 0.00 | 0.00 | 79 | 1009.0 |
| 20260505175221 | 57 | 20 | 0.0 | 2.0 | 0.00 | 0.00 | 0.00 | 80 | 1008.6 |
| 20260505174717 | 57 | 344 | 0.0 | 2.0 | 0.00 | 0.00 | 0.00 | 80 | 1008.7 |
| 20260505174214 | 57 | 42 | 1.0 | 2.0 | 0.00 | 0.00 | 0.00 | 80 | 1008.8 |
| 20260505173710 | 57 | 236 | 1.0 | 3.0 | 0.00 | 0.00 | 0.00 | 81 | 1008.6 |
| 20260505173207 | 57 | 294 | 2.0 | 3.0 | 0.00 | 0.00 | 0.00 | 81 | 1008.9 |
| 20260505172704 | 57 | 352 | 1.0 | 2.0 | 0.00 | 0.00 | 0.00 | 81 | 1008.5 |
| 20260505172201 | 57 | 274 | 2.0 | 2.0 | 0.00 | 0.00 | 0.00 | 81 | 1008.7 |
| 20260505171701 | 57 | 32 | 2.0 | 4.0 | 0.00 | 0.00 | 0.00 | 82 | 1008.3 |
| 20260505171158 | 57 | 337 | 2.0 | 3.0 | 0.00 | 0.00 | 0.00 | 82 | 1008.3 |
| 20260505170655 | 57 | 26 | 0.0 | 3.0 | 0.00 | 0.00 | 0.00 | 83 | 1008.2 |
| 20260505170152 | 57 | 318 | 2.0 | 3.0 | 0.00 | 0.00 | 0.00 | 82 | 1008.3 |
| 20260505165652 | 57 | 60 | 1.0 | 6.0 | 0.00 | 0.00 | 0.00 | 83 | 1008.2 |
| 20260505165148 | 57 | 336 | 0.0 | 9.0 | 0.00 | 0.00 | 0.00 | 83 | 1008.0 |
| 20260505164644 | 57 | 11 | 1.0 | 3.0 | 0.00 | 0.00 | 0.00 | 83 | 1007.9 |
| 20260505164142 | 57 | 20 | 2.0 | 2.0 | 0.00 | 0.00 | 0.00 | 83 | 1007.7 |
| 20260505163640 | 57 | 14 | 1.0 | 3.0 | 0.00 | 0.00 | 0.00 | 84 | 1007.7 |
| 20260505163137 | 57 | 232 | 1.0 | 3.0 | 0.00 | 0.00 | 0.00 | 84 | 1007.4 |
| 20260505162634 | 57 | 8 | 2.0 | 6.0 | 0.00 | 0.00 | 0.00 | 84 | 1007.4 |
| 20260505162132 | 57 | 5 | 0.0 | 2.0 | 0.00 | 0.00 | 0.00 | 84 | 1007.1 |
| 20260505161629 | 58 | 18 | 2.0 | 3.0 | 0.00 | 0.00 | 0.00 | 84 | 1007.0 |
| 20260505161126 | 58 | 28 | 1.0 | 7.0 | 0.00 | 0.00 | 0.00 | 84 | 1006.6 |
| 20260505160624 | 58 | 358 | 2.0 | 3.0 | 0.00 | 0.00 | 0.00 | 84 | 1006.3 |
| 20260505160121 | 59 | 0 | 1.0 | 2.0 | 0.00 | 0.00 | 0.00 | 84 | 1006.3 |
| 20260505153101 | 61 | 353 | 2.0 | 3.0 | 0.00 | 0.00 | 0.00 | 85 | 1005.8 |
| 20260505152557 | 61 | 254 | 1.0 | 2.0 | 0.00 | 0.00 | 0.00 | 85 | 1005.7 |
| 20260505152053 | 62 | 14 | 2.0 | 3.0 | 0.00 | 0.00 | 0.00 | 85 | 1005.5 |
| 20260505151548 | 62 | 343 | 2.0 | 2.0 | 0.00 | 0.00 | 0.00 | 84 | 1005.1 |
| 20260505151046 | 63 | 2 | 2.0 | 7.0 | 0.00 | 0.00 | 0.00 | 84 | 1005.0 |
| 20260505150542 | 64 | 10 | 1.0 | 3.0 | 0.00 | 0.00 | 0.00 | 83 | 1004.8 |
| 20260505140508 | 69 | 41 | 0.0 | 1.0 | 0.00 | 0.00 | 0.00 | 86 | 1003.3 |
| 20260505124921 | 68 | 63 | 1.0 | 2.0 | 0.00 | 0.00 | 0.00 | 86 | 1003.1 |
| 20260505124418 | 68 | 353 | 0.0 | 0.0 | 0.00 | 0.00 | 0.00 | 85 | 1003.1 |
| 20260505123914 | 68 | 30 | 1.0 | 1.0 | 0.00 | 0.00 | 0.00 | 85 | 1002.8 |
| 20260505123411 | 68 | 52 | 0.0 | 1.0 | 0.00 | 0.00 | 0.00 | 85 | 1003.0 |
| 20260505122906 | 68 | 57 | 0.0 | 1.0 | 0.00 | 0.00 | 0.00 | 85 | 1002.9 |
| 20260505122404 | 68 | 30 | 0.0 | 0.0 | 0.00 | 0.00 | 0.00 | 85 | 1002.9 |
| 20260505121900 | 68 | 30 | 0.0 | 0.0 | 0.00 | 0.00 | 0.00 | 85 | 1002.7 |
| 20260505121358 | 68 | 30 | 0.0 | 0.0 | 0.00 | 0.00 | 0.00 | 85 | 1002.6 |
| 20260505120853 | 68 | 30 | 0.0 | 0.0 | 0.00 | 0.00 | 0.00 | 84 | 1002.6 |
| 20260505120350 | 68 | 30 | 0.0 | 0.0 | 0.00 | 0.00 | 0.00 | 83 | 1002.3 |
| 20260505115848 | 68 | 30 | 0.0 | 0.0 | 0.00 | 0.00 | 0.00 | 83 | 1002.5 |
| 20260505115346 | 68 | 30 | 0.0 | 0.0 | 0.00 | 0.00 | 0.00 | 82 | 1002.6 |
| 20260505114844 | 69 | 30 | 0.0 | 0.0 | 0.00 | 0.00 | 0.00 | 82 | 1002.2 |
| 20260505114340 | 69 | 30 | 0.0 | 0.0 | 0.00 | 0.00 | 0.00 | 81 | 1002.1 |
| 20260505113836 | 69 | 30 | 0.0 | 0.0 | 0.00 | 0.00 | 0.00 | 81 | 1002.1 |
| 20260505113333 | 70 | 30 | 0.0 | 0.0 | 0.00 | 0.00 | 0.00 | 80 | 1001.8 |
| 20260505112829 | 70 | 30 | 0.0 | 0.0 | 0.00 | 0.00 | 0.00 | 79 | 1001.8 |
| 20260505112326 | 70 | 30 | 0.0 | 0.0 | 0.00 | 0.00 | 0.00 | 78 | 1001.5 |
| 20260505111822 | 70 | 30 | 0.0 | 1.0 | 0.00 | 0.00 | 0.00 | 78 | 1001.3 |
| 20260505111317 | 70 | 249 | 0.0 | 1.0 | 0.00 | 0.00 | 0.00 | 78 | 1001.1 |
| 20260505110814 | 71 | 68 | 0.0 | 0.0 | 0.00 | 0.00 | 0.00 | 77 | 1001.3 |
| 20260505110311 | 71 | 254 | 1.0 | 3.0 | 0.00 | 0.00 | 0.00 | 76 | 1001.3 |
| 20260505101746 | 72 | 102 | 2.0 | 7.0 | 0.00 | 0.00 | 0.00 | 75 | 1000.2 |
| 20260505101241 | 72 | 179 | 2.0 | 6.0 | 0.00 | 0.00 | 0.00 | 75 | 1000.0 |
| 20260505100738 | 72 | 272 | 2.0 | 3.0 | 0.00 | 0.00 | 0.00 | 75 | 1000.1 |
| 20260505100234 | 72 | 243 | 2.0 | 4.0 | 0.00 | 0.00 | 0.00 | 75 | 1000.1 |
| 20260505095730 | 72 | 53 | 2.0 | 8.0 | 0.00 | 0.00 | 0.00 | 75 | 999.9 |
| 20260505095228 | 72 | 22 | 1.0 | 6.0 | 0.00 | 0.00 | 0.00 | 75 | 999.9 |
| 20260505094723 | 73 | 27 | 2.0 | 4.0 | 0.00 | 0.00 | 0.00 | 75 | 1000.2 |
| 20260505094220 | 73 | 122 | 3.0 | 9.0 | 0.00 | 0.00 | 0.00 | 75 | 1000.0 |
| 20260505093716 | 73 | 254 | 3.0 | 7.0 | 0.00 | 0.00 | 0.00 | 75 | 1000.2 |
| 20260505093214 | 73 | 207 | 2.0 | 7.0 | 0.00 | 0.00 | 0.00 | 75 | 999.9 |
| 20260505092710 | 72 | 155 | 2.0 | 9.0 | 0.00 | 0.00 | 0.00 | 75 | 999.9 |
| 20260505092210 | 73 | 227 | 1.0 | 9.0 | 0.00 | 0.00 | 0.00 | 75 | 1000.0 |
| 20260505091706 | 73 | 213 | 4.0 | 8.0 | 0.00 | 0.00 | 0.00 | 75 | 1000.0 |
| 20260505091204 | 73 | 144 | 2.0 | 4.0 | 0.00 | 0.00 | 0.00 | 75 | 1000.1 |
| 20260505090701 | 73 | 263 | 2.0 | 9.0 | 0.00 | 0.00 | 0.00 | 75 | 1000.1 |
| 20260505090159 | 73 | 252 | 3.0 | 6.0 | 0.00 | 0.00 | 0.00 | 75 | 1000.2 |
| 20260505085657 | 73 | 174 | 2.0 | 4.0 | 0.00 | 0.00 | 0.00 | 75 | 1000.1 |
| 20260505085155 | 73 | 200 | 1.0 | 10.0 | 0.00 | 0.00 | 0.00 | 75 | 1000.3 |
| 20260505084652 | 73 | 288 | 3.0 | 6.0 | 0.00 | 0.00 | 0.00 | 75 | 1000.4 |
| 20260505084151 | 73 | 138 | 3.0 | 8.0 | 0.00 | 0.00 | 0.00 | 75 | 1000.4 |
| 20260505083647 | 73 | 299 | 1.0 | 4.0 | 0.00 | 0.00 | 0.00 | 75 | 1000.6 |
| 20260505083144 | 73 | 299 | 3.0 | 7.0 | 0.00 | 0.00 | 0.00 | 75 | 1000.6 |
| 20260505082640 | 73 | 312 | 2.0 | 7.0 | 0.00 | 0.00 | 0.00 | 75 | 1000.6 |
| 20260505082137 | 73 | 327 | 2.0 | 6.0 | 0.00 | 0.00 | 0.00 | 75 | 1000.7 |
| 20260505081633 | 73 | 233 | 4.0 | 10.0 | 0.00 | 0.00 | 0.00 | 75 | 1000.8 |
| 20260505081131 | 73 | 275 | 2.0 | 8.0 | 0.00 | 0.00 | 0.00 | 75 | 1000.7 |
| 20260505080627 | 73 | 71 | 2.0 | 7.0 | 0.00 | 0.00 | 0.00 | 75 | 1000.8 |
| 20260505080123 | 73 | 259 | 3.0 | 7.0 | 0.00 | 0.00 | 0.00 | 75 | 1000.8 |
| 20260505075620 | 73 | 241 | 2.0 | 6.0 | 0.00 | 0.00 | 0.00 | 75 | 1000.7 |
| 20260505075116 | 73 | 265 | 4.0 | 10.0 | 0.00 | 0.00 | 0.00 | 75 | 1001.0 |
| 20260505074613 | 73 | 257 | 4.0 | 7.0 | 0.00 | 0.00 | 0.00 | 75 | 1001.0 |
| 20260505074110 | 73 | 146 | 1.0 | 4.0 | 0.00 | 0.00 | 0.00 | 75 | 1000.9 |
| 20260505073608 | 73 | 266 | 4.0 | 7.0 | 0.00 | 0.00 | 0.00 | 75 | 1001.1 |
| 20260505073106 | 73 | 245 | 4.0 | 7.0 | 0.00 | 0.00 | 0.00 | 75 | 1001.0 |
| 20260505072601 | 73 | 338 | 4.0 | 13.0 | 0.00 | 0.00 | 0.00 | 74 | 1001.2 |
| 20260505072058 | 73 | 247 | 1.0 | 9.0 | 0.00 | 0.00 | 0.00 | 74 | 1001.1 |
| 20260505071559 | 73 | 170 | 7.0 | 10.0 | 0.00 | 0.00 | 0.00 | 74 | 1001.4 |
| 20260505071057 | 73 | 180 | 0.0 | 7.0 | 0.00 | 0.00 | 0.00 | 75 | 1001.4 |
| 20260505070554 | 73 | 171 | 3.0 | 7.0 | 0.00 | 0.00 | 0.00 | 74 | 1001.4 |
| 20260505070050 | 73 | 259 | 2.0 | 11.0 | 0.00 | 0.00 | 0.00 | 74 | 1001.6 |
| 20260505065546 | 73 | 334 | 5.0 | 9.0 | 0.00 | 0.00 | 0.00 | 74 | 1001.5 |
| 20260505065043 | 73 | 183 | 2.0 | 8.0 | 0.00 | 0.00 | 0.00 | 74 | 1001.6 |
| 20260505064539 | 73 | 135 | 2.0 | 7.0 | 0.00 | 0.00 | 0.00 | 74 | 1001.6 |
| 20260505064038 | 73 | 112 | 3.0 | 8.0 | 0.00 | 0.00 | 0.00 | 74 | 1001.8 |
| 20260505063535 | 73 | 102 | 2.0 | 8.0 | 0.00 | 0.00 | 0.00 | 74 | 1001.8 |
| 20260505063031 | 73 | 317 | 2.0 | 10.0 | 0.00 | 0.00 | 0.00 | 74 | 1001.8 |
| 20260505062528 | 73 | 124 | 1.0 | 4.0 | 0.00 | 0.00 | 0.00 | 74 | 1001.8 |
| 20260505062025 | 73 | 108 | 4.0 | 6.0 | 0.00 | 0.00 | 0.00 | 74 | 1001.9 |
| 20260505061522 | 73 | 7 | 4.0 | 6.0 | 0.00 | 0.00 | 0.00 | 74 | 1001.8 |
| 20260505061020 | 73 | 288 | 4.0 | 8.0 | 0.00 | 0.00 | 0.00 | 74 | 1001.7 |
| 20260505060517 | 73 | 134 | 5.0 | 9.0 | 0.00 | 0.00 | 0.00 | 73 | 1001.9 |
| 20260505060014 | 73 | 217 | 4.0 | 4.0 | 0.00 | 0.00 | 0.00 | 74 | 1002.0 |
| 20260505055509 | 73 | 168 | 6.0 | 8.0 | 0.00 | 0.00 | 0.00 | 73 | 1002.3 |
| 20260505055006 | 73 | 305 | 4.0 | 9.0 | 0.00 | 0.00 | 0.00 | 73 | 1002.3 |
| 20260505054504 | 73 | 249 | 1.0 | 6.0 | 0.00 | 0.00 | 0.00 | 73 | 1002.2 |
| 20260505054001 | 73 | 236 | 2.0 | 6.0 | 0.00 | 0.00 | 0.00 | 73 | 1002.4 |
| 20260505053458 | 73 | 148 | 4.0 | 8.0 | 0.00 | 0.00 | 0.00 | 73 | 1002.3 |
| 20260505052955 | 74 | 274 | 1.0 | 4.0 | 0.00 | 0.00 | 0.00 | 73 | 1002.3 |
| 20260505052452 | 74 | 222 | 2.0 | 8.0 | 0.00 | 0.00 | 0.00 | 72 | 1002.3 |
| 20260505051949 | 74 | 237 | 3.0 | 8.0 | 0.00 | 0.00 | 0.00 | 72 | 1002.2 |
| 20260505051446 | 74 | 92 | 1.0 | 9.0 | 0.00 | 0.00 | 0.00 | 72 | 1002.3 |
| 20260505050944 | 74 | 119 | 4.0 | 8.0 | 0.00 | 0.00 | 0.00 | 72 | 1002.6 |
| 20260505050442 | 74 | 226 | 4.0 | 14.0 | 0.00 | 0.00 | 0.00 | 72 | 1002.6 |
| 20260505041410 | 74 | 318 | 4.0 | 6.0 | 0.00 | 0.00 | 0.00 | 71 | 1003.0 |
| 20260505040907 | 75 | 175 | 3.0 | 7.0 | 0.00 | 0.00 | 0.00 | 71 | 1003.1 |
| 20260505040405 | 75 | 68 | 3.0 | 11.0 | 0.00 | 0.00 | 0.00 | 70 | 1003.2 |
| 20260505035901 | 75 | 242 | 4.0 | 9.0 | 0.00 | 0.00 | 0.00 | 70 | 1003.1 |
| 20260505035357 | 75 | 108 | 4.0 | 13.0 | 0.00 | 0.00 | 0.00 | 70 | 1003.1 |
| 20260505034854 | 75 | 246 | 2.0 | 4.0 | 0.00 | 0.00 | 0.00 | 70 | 1003.1 |
| 20260505034351 | 75 | 347 | 2.0 | 8.0 | 0.00 | 0.00 | 0.00 | 69 | 1002.9 |
| 20260505033848 | 75 | 242 | 1.0 | 8.0 | 0.00 | 0.00 | 0.00 | 69 | 1003.0 |
| 20260505033345 | 75 | 258 | 4.0 | 10.0 | 0.00 | 0.00 | 0.00 | 69 | 1002.7 |
| 20260505032843 | 75 | 270 | 4.0 | 9.0 | 0.00 | 0.00 | 0.00 | 69 | 1002.8 |
| 20260505032339 | 76 | 242 | 2.0 | 10.0 | 0.00 | 0.00 | 0.00 | 69 | 1002.7 |
| 20260505031836 | 76 | 190 | 3.0 | 6.0 | 0.00 | 0.00 | 0.00 | 68 | 1002.7 |
| 20260505031333 | 76 | 308 | 2.0 | 7.0 | 0.00 | 0.00 | 0.00 | 68 | 1002.6 |
| 20260505030830 | 76 | 264 | 4.0 | 11.0 | 0.00 | 0.00 | 0.00 | 68 | 1002.8 |
| 20260505030326 | 76 | 180 | 2.0 | 8.0 | 0.00 | 0.00 | 0.00 | 68 | 1002.7 |
| 20260505025822 | 76 | 122 | 3.0 | 11.0 | 0.00 | 0.00 | 0.00 | 67 | 1002.8 |
| 20260505025320 | 76 | 91 | 4.0 | 8.0 | 0.00 | 0.00 | 0.00 | 67 | 1002.6 |
| 20260505024818 | 76 | 287 | 7.0 | 9.0 | 0.00 | 0.00 | 0.00 | 67 | 1002.6 |
| 20260505024315 | 76 | 280 | 3.0 | 6.0 | 0.00 | 0.00 | 0.00 | 66 | 1002.2 |
| 20260505023812 | 76 | 239 | 4.0 | 13.0 | 0.00 | 0.00 | 0.00 | 66 | 1002.5 |
| 20260505023309 | 76 | 265 | 4.0 | 14.0 | 0.00 | 0.00 | 0.00 | 66 | 1002.5 |
| 20260505022806 | 76 | 197 | 4.0 | 9.0 | 0.00 | 0.00 | 0.00 | 66 | 1002.4 |
| 20260505022304 | 77 | 66 | 5.0 | 9.0 | 0.00 | 0.00 | 0.00 | 66 | 1002.4 |
| 20260505021800 | 77 | 288 | 7.0 | 13.0 | 0.00 | 0.00 | 0.00 | 66 | 1002.3 |
| 20260505021257 | 77 | 77 | 3.0 | 6.0 | 0.00 | 0.00 | 0.00 | 66 | 1002.1 |
| 20260505020753 | 77 | 259 | 3.0 | 9.0 | 0.00 | 0.00 | 0.00 | 65 | 1002.3 |
| 20260505020248 | 77 | 49 | 2.0 | 6.0 | 0.00 | 0.00 | 0.00 | 65 | 1002.2 |
| 20260505015746 | 77 | 207 | 2.0 | 7.0 | 0.00 | 0.00 | 0.00 | 64 | 1002.3 |
| 20260505015242 | 78 | 298 | 5.0 | 8.0 | 0.00 | 0.00 | 0.00 | 64 | 1002.5 |
| 20260505014739 | 78 | 47 | 3.0 | 14.0 | 0.00 | 0.00 | 0.00 | 63 | 1002.3 |
| 20260505014237 | 78 | 227 | 5.0 | 7.0 | 0.00 | 0.00 | 0.00 | 63 | 1002.3 |
| 20260505013733 | 78 | 260 | 8.0 | 17.0 | 0.00 | 0.00 | 0.00 | 62 | 1002.6 |
| 20260505013230 | 78 | 106 | 1.0 | 8.0 | 0.00 | 0.00 | 0.00 | 62 | 1002.4 |
| 20260505012729 | 78 | 214 | 3.0 | 7.0 | 0.00 | 0.00 | 0.00 | 62 | 1002.2 |
| 20260505012225 | 78 | 224 | 5.0 | 10.0 | 0.00 | 0.00 | 0.00 | 62 | 1002.3 |
| 20260505011721 | 78 | 246 | 6.0 | 8.0 | 0.00 | 0.00 | 0.00 | 62 | 1002.3 |
| 20260505011219 | 78 | 101 | 2.0 | 10.0 | 0.00 | 0.00 | 0.00 | 62 | 1002.4 |
| 20260505010714 | 78 | 134 | 2.0 | 6.0 | 0.00 | 0.00 | 0.00 | 62 | 1002.5 |
| 20260505010211 | 79 | 219 | 4.0 | 8.0 | 0.00 | 0.00 | 0.00 | 61 | 1002.6 |
| 20260505005707 | 79 | 274 | 1.0 | 9.0 | 0.00 | 0.00 | 0.00 | 61 | 1002.6 |
| 20260505005204 | 79 | 250 | 2.0 | 7.0 | 0.00 | 0.00 | 0.00 | 61 | 1002.8 |
| 20260505004701 | 79 | 249 | 4.0 | 9.0 | 0.00 | 0.00 | 0.00 | 60 | 1002.6 |
| 20260505004158 | 79 | 54 | 3.0 | 6.0 | 0.00 | 0.00 | 0.00 | 60 | 1002.5 |
| 20260505003655 | 80 | 235 | 3.0 | 13.0 | 0.00 | 0.00 | 0.00 | 59 | 1002.8 |
| 20260505003153 | 80 | 38 | 2.0 | 11.0 | 0.00 | 0.00 | 0.00 | 59 | 1002.6 |
| 20260505002649 | 80 | 41 | 2.0 | 8.0 | 0.00 | 0.00 | 0.00 | 59 | 1002.8 |
| 20260505002147 | 80 | 123 | 2.0 | 6.0 | 0.00 | 0.00 | 0.00 | 58 | 1002.8 |
| 20260505001643 | 80 | 139 | 4.0 | 10.0 | 0.00 | 0.00 | 0.00 | 58 | 1002.9 |
| 20260505001141 | 80 | 331 | 1.0 | 6.0 | 0.00 | 0.00 | 0.00 | 58 | 1003.0 |
| 20260505000638 | 80 | 137 | 3.0 | 11.0 | 0.00 | 0.00 | 0.00 | 57 | 1003.0 |
| 20260505000136 | 80 | 358 | 4.0 | 9.0 | 0.00 | 0.00 | 0.00 | 57 | 1002.9 |
| 20260504235632 | 80 | 350 | 2.0 | 7.0 | 0.00 | 0.00 | 0.00 | 57 | 1002.9 |
| 20260504235129 | 81 | 290 | 6.0 | 13.0 | 0.00 | 0.00 | 0.00 | 57 | 1003.0 |
| 20260504234626 | 81 | 128 | 4.0 | 9.0 | 0.00 | 0.00 | 0.00 | 57 | 1003.3 |
| 20260504234123 | 81 | 326 | 5.0 | 9.0 | 0.00 | 0.00 | 0.00 | 57 | 1003.2 |
| 20260504233619 | 81 | 200 | 4.0 | 10.0 | 0.00 | 0.00 | 0.00 | 56 | 1003.2 |
| 20260504233115 | 81 | 196 | 3.0 | 7.0 | 0.00 | 0.00 | 0.00 | 56 | 1003.3 |
| 20260504232613 | 81 | 55 | 2.0 | 16.0 | 0.00 | 0.00 | 0.00 | 57 | 1003.3 |
| 20260504232110 | 81 | 249 | 4.0 | 6.0 | 0.00 | 0.00 | 0.00 | 56 | 1003.4 |
| 20260504231606 | 81 | 241 | 4.0 | 11.0 | 0.00 | 0.00 | 0.00 | 56 | 1003.8 |
| 20260504231102 | 82 | 108 | 2.0 | 8.0 | 0.00 | 0.00 | 0.00 | 56 | 1003.9 |
| 20260504230558 | 82 | 294 | 2.0 | 9.0 | 0.00 | 0.00 | 0.00 | 55 | 1003.5 |
| 20260504230053 | 81 | 262 | 3.0 | 10.0 | 0.00 | 0.00 | 0.00 | 55 | 1003.8 |
| 20260504225550 | 81 | 156 | 4.0 | 7.0 | 0.00 | 0.00 | 0.00 | 55 | 1003.8 |
| 20260504225046 | 81 | 245 | 4.0 | 6.0 | 0.00 | 0.00 | 0.00 | 55 | 1003.8 |
| 20260504224543 | 81 | 213 | 2.0 | 4.0 | 0.00 | 0.00 | 0.00 | 55 | 1003.9 |
| 20260504224040 | 81 | 147 | 4.0 | 6.0 | 0.00 | 0.00 | 0.00 | 55 | 1003.8 |
| 20260504223537 | 82 | 311 | 3.0 | 11.0 | 0.00 | 0.00 | 0.00 | 55 | 1004.0 |
| 20260504223033 | 82 | 78 | 1.0 | 2.0 | 0.00 | 0.00 | 0.00 | 54 | 1004.0 |
| 20260504222530 | 81 | 275 | 2.0 | 4.0 | 0.00 | 0.00 | 0.00 | 54 | 1003.9 |
| 20260504222027 | 81 | 302 | 4.0 | 9.0 | 0.00 | 0.00 | 0.00 | 54 | 1003.9 |
| 20260504221524 | 81 | 104 | 4.0 | 9.0 | 0.00 | 0.00 | 0.00 | 54 | 1004.1 |
| 20260504221021 | 81 | 193 | 2.0 | 6.0 | 0.00 | 0.00 | 0.00 | 53 | 1004.1 |
| 20260504220518 | 81 | 129 | 3.0 | 6.0 | 0.00 | 0.00 | 0.00 | 54 | 1004.1 |
| 20260504220015 | 81 | 263 | 4.0 | 7.0 | 0.00 | 0.00 | 0.00 | 54 | 1004.3 |
| 20260504215511 | 81 | 203 | 3.0 | 6.0 | 0.00 | 0.00 | 0.00 | 53 | 1004.1 |
| 20260504215009 | 81 | 241 | 3.0 | 10.0 | 0.00 | 0.00 | 0.00 | 53 | 1004.3 |
| 20260504214504 | 81 | 197 | 4.0 | 9.0 | 0.00 | 0.00 | 0.00 | 53 | 1004.6 |